Weather History for Kendall, FL

Change the Weather History Date:

Friday, November 25, 2011

  Actual Average Record
Temperature  
Mean Temperature 71 °F -  
Max Temperature 78 °F 78 °F 84 °F (1990)
Min Temperature 64 °F 63 °F 50 °F (2012)
Cooling Degree Days 6    
Growing Degree Days 21 (Base 50)    
Moisture  
Dew Point 57 °F    
Average Humidity 58    
Maximum Humidity 70    
Minimum Humidity 45    
Precipitation  
Precipitation 0.00 in - - ()
Sea Level Pressure  
Sea Level Pressure 30.15 in    
Wind  
Wind Speed 11 mph (ENE)    
Max Wind Speed 22 mph    
Max Gust Speed 28 mph    
Visibility 10 miles    
Events      
Averages and records for this station are not official NWS values.
T = Trace of Precipitation, MM = Missing Value Source: NWS Daily Summary

Daily Weather History Graph

Daily Weather History Graph

Search for Another Location

Airport:

Trip Planner

Search our weather history database for the weather conditions in past years. The results will help you decide how hot, cold, wet, or windy it might be!

Date:

Astronomy

Nov. 25, 2011 Rise Set
Actual Time 6:46 AM EST 5:30 PM EST
Civil Twilight 6:21 AM EST 5:55 PM EST
Nautical Twilight 5:53 AM EST 6:23 PM EST
Astronomical Twilight 5:25 AM EST 6:51 PM EST
Moon 7:07 AM EST (11/25) 6:02 PM EST (11/25)
Length of Visible Light 11h 33m
Length of Day
10h 44m
New Moon, 0% of the Moon is Illuminated
Nov 25
New Moon
Dec 2
First Quarter
Dec 10
Full
Dec 17
Last Quarter
Dec 24
New

Hourly Weather History & Observations

Time (EST) Temp. Dew Point Humidity Pressure Visibility Wind Dir Wind Speed Gust Speed Precip Events Conditions
12:53 AM 66.9 °F 57.0 °F 70% 30.16 in 10.0 mi NNE 5.8 mph - N/A   Clear
3:53 AM 66.9 °F 55.9 °F 68% 30.14 in 10.0 mi ENE 8.1 mph - N/A   Clear
4:53 AM 66.2 °F 55.4 °F 68% 30.14 in 10.0 mi NE 5.8 mph - N/A   Clear
5:53 AM 64.9 °F 55.0 °F 70% 30.15 in 10.0 mi NE 6.9 mph - N/A   Clear
6:53 AM 68.0 °F 57.0 °F 68% 30.16 in 10.0 mi ENE 6.9 mph - N/A   Partly Cloudy
7:53 AM 70.0 °F 57.0 °F 63% 30.17 in 10.0 mi ENE 6.9 mph - N/A   Partly Cloudy
8:53 AM 75.0 °F 59.0 °F 57% 30.18 in 10.0 mi ENE 13.8 mph - N/A   Scattered Clouds
9:53 AM 75.0 °F 57.9 °F 55% 30.20 in 10.0 mi East 16.1 mph 24.2 mph N/A   Overcast
10:53 AM 78.1 °F 55.0 °F 45% 30.19 in 10.0 mi East 17.3 mph - N/A   Clear
11:53 AM 78.1 °F 57.9 °F 50% 30.17 in 10.0 mi East 17.3 mph 25.3 mph N/A   Mostly Cloudy
12:53 PM 78.1 °F 57.9 °F 50% 30.14 in 10.0 mi East 19.6 mph 26.5 mph N/A   Mostly Cloudy
1:53 PM 77.0 °F 59.0 °F 54% 30.12 in 10.0 mi East 17.3 mph - N/A   Mostly Cloudy
2:53 PM 77.0 °F 57.9 °F 52% 30.12 in 10.0 mi East 21.9 mph 27.6 mph N/A   Mostly Cloudy
3:53 PM 75.9 °F 54.0 °F 46% 30.12 in 10.0 mi East 18.4 mph 25.3 mph N/A   Partly Cloudy
4:53 PM 75.0 °F 55.9 °F 51% 30.11 in 10.0 mi East 13.8 mph 18.4 mph N/A   Scattered Clouds
5:53 PM 73.0 °F 57.9 °F 59% 30.12 in 10.0 mi East 15.0 mph - N/A   Mostly Cloudy
6:53 PM 72.0 °F 55.0 °F 55% 30.13 in 10.0 mi East 10.4 mph - N/A   Mostly Cloudy
7:53 PM 69.8 °F 55.4 °F 60% 30.14 in 10.0 mi East 8.1 mph - N/A   Mostly Cloudy
8:53 PM 73.0 °F 54.0 °F 51% 30.16 in 10.0 mi East 13.8 mph - N/A   Mostly Cloudy
9:53 PM 71.1 °F 54.0 °F 55% 30.16 in 10.0 mi East 9.2 mph - N/A   Scattered Clouds
10:53 PM 71.1 °F 57.0 °F 61% 30.15 in 10.0 mi East 10.4 mph - N/A   Scattered Clouds
11:53 PM 72.0 °F 59.0 °F 64% 30.15 in 10.0 mi East 10.4 mph - N/A   Mostly Cloudy